Date String (YYYY-MM-DD hh:mm:ss) UTC,Instrument flags,Ambient pressure (hPa),Sample flow (lpm),Bypass flow (lpm),Sample temperature (°C),Ambient temperature (°C),ASC tube jacket temperature (°C),LED temperature (°C),Box temperature (°C),Sample RH (%),Span deviation,Mass concentration (μg/m³),Mass concentration (μg/m³),Mass concentration (μg/m³)
DateTimeUTC,F1_M11,P_M11,Q1_M11,Q2_M11,T1_M11,T2_M11,T3_M11,T4_M11,T5_M11,U1_M11,ZSPAN_M11,X0_M11,X2_M11,X1_M11
2022-03-14 12:00:00,,0825.6,4.99,0.00,24.2,23.3,00.0,33.2,26.0,08.7,0000.0,0005.97,0000.87,0000.46
2022-03-14 12:01:00,,0825.6,5.01,0.00,24.2,23.3,00.0,33.2,26.0,08.8,0000.0,0004.35,0000.88,0000.47
2022-03-14 12:02:00,,0825.6,5.01,0.00,24.2,23.3,00.0,33.2,26.0,08.8,0000.0,0004.56,0000.84,0000.47
2022-03-14 12:03:00,,0825.6,5.01,0.00,24.2,23.3,00.0,33.2,26.0,08.9,0000.0,0004.58,0000.84,0000.48
2022-03-14 12:04:00,,0825.6,4.99,0.00,24.2,23.3,00.0,33.2,26.0,08.8,0000.0,0004.33,0000.86,0000.49
2022-03-14 12:05:00,,0825.6,5.01,0.00,24.2,23.3,00.0,33.1,26.0,08.8,0000.0,0003.41,0000.87,0000.49
2022-03-14 12:06:00,,0825.6,5.00,0.00,24.2,23.3,00.0,33.1,26.0,08.8,0000.0,0003.45,0000.89,0000.51
2022-03-14 12:07:00,,0825.7,5.00,0.00,24.2,23.3,00.0,33.1,26.0,08.9,0000.0,0003.74,0000.92,0000.52
2022-03-14 12:08:00,,0825.7,5.00,0.00,24.2,23.3,00.0,33.1,26.0,09.0,0000.0,0002.88,0000.96,0000.54
2022-03-14 12:09:00,,0825.7,5.00,0.00,24.2,23.3,00.0,33.1,26.0,09.0,0000.0,0002.57,0001.00,0000.56
2022-03-14 12:10:00,,0825.7,4.99,0.00,24.2,23.3,00.0,33.1,26.0,09.1,0000.0,0002.68,0001.03,0000.58
2022-03-14 12:11:00,,0825.8,5.00,0.00,24.2,23.3,00.0,33.1,26.0,09.1,0000.0,0002.88,0001.07,0000.58
2022-03-14 12:12:00,,0825.8,5.01,0.00,24.1,23.3,00.0,33.1,26.0,09.2,0000.0,0002.96,0001.10,0000.59
2022-03-14 12:13:00,,0825.9,5.01,0.00,24.2,23.3,00.0,33.1,26.0,09.2,0000.0,0002.84,0001.14,0000.60
2022-03-14 12:14:00,,0825.9,5.00,0.00,24.1,23.3,00.0,33.1,25.9,09.2,0000.0,0002.76,0001.15,0000.61
2022-03-14 12:15:00,,0825.9,4.99,0.00,24.1,23.3,00.0,33.1,26.0,09.2,0000.0,0002.77,0001.14,0000.62
2022-03-14 12:16:00,,0825.9,5.01,0.00,24.1,23.3,00.0,33.1,25.9,09.2,0000.0,0003.14,0001.14,0000.63
2022-03-14 12:17:00,,0825.9,5.00,0.00,24.1,23.3,00.0,33.1,25.9,09.2,0000.0,0003.18,0001.17,0000.62
2022-03-14 12:18:00,,0825.9,5.00,0.00,24.1,23.3,00.0,33.1,25.9,09.2,0000.0,0002.95,0001.17,0000.63
2022-03-14 12:19:00,,0825.9,5.00,0.00,24.1,23.2,00.0,33.1,25.9,09.2,0000.0,0002.77,0001.15,0000.62
2022-03-14 12:20:00,,0826.0,4.99,0.00,24.1,23.2,00.0,33.1,25.9,09.3,0000.0,0002.74,0001.17,0000.63
2022-03-14 12:21:00,,0826.0,4.99,0.00,24.1,23.2,00.0,33.1,25.9,09.2,0000.0,0002.76,0001.18,0000.64
2022-03-14 12:22:00,,0826.0,5.00,0.00,24.1,23.2,00.0,33.1,25.9,09.2,0000.0,0003.09,0001.13,0000.65
2022-03-14 12:23:00,,0826.0,5.00,0.00,24.1,23.2,00.0,33.1,25.9,09.2,0000.0,0003.58,0001.09,0000.66
2022-03-14 12:24:00,,0826.0,4.99,0.00,24.1,23.2,00.0,33.1,25.9,09.2,0000.0,0003.63,0001.09,0000.66
2022-03-14 12:25:00,,0826.0,5.01,0.00,24.1,23.2,00.0,33.0,25.9,09.2,0000.0,0003.71,0001.12,0000.67
2022-03-14 12:26:00,,0826.1,5.00,0.00,24.1,23.2,00.0,33.0,25.9,09.2,0000.0,0003.68,0001.12,0000.67
2022-03-14 12:27:00,,0826.1,5.00,0.00,24.1,23.2,00.0,33.0,25.9,09.1,0000.0,0003.36,0001.14,0000.67
2022-03-14 12:28:00,,0826.1,4.98,0.00,24.1,23.2,00.0,33.0,25.9,09.0,0000.0,0003.44,0001.14,0000.67
2022-03-14 12:29:00,,0826.2,5.00,0.00,24.1,23.2,00.0,33.0,25.9,08.9,0000.0,0003.45,0001.13,0000.67
2022-03-14 12:30:00,,0826.1,5.01,0.00,24.1,23.2,00.0,33.0,25.8,08.9,0000.0,0003.40,0001.12,0000.66
2022-03-14 12:31:00,,0826.1,5.00,0.00,24.0,23.2,00.0,33.0,25.8,08.9,0000.0,0003.46,0001.15,0000.66
2022-03-14 12:32:00,,0826.1,4.99,0.00,24.0,23.2,00.0,33.0,25.7,08.9,0000.0,0003.65,0001.24,0000.65
2022-03-14 12:33:00,,0826.1,5.00,0.00,24.0,23.1,00.0,33.0,25.7,08.9,0000.0,0003.42,0001.34,0000.66
2022-03-14 12:34:00,,0826.1,5.01,0.00,24.0,23.1,00.0,33.0,25.7,08.9,0000.0,0003.14,0001.44,0000.66
2022-03-14 12:35:00,,0826.1,4.99,0.00,24.0,23.1,00.0,33.0,25.7,08.9,0000.0,0003.38,0001.55,0000.66
2022-03-14 12:36:00,,0826.1,5.00,0.00,24.0,23.1,00.0,33.0,25.7,08.9,0000.0,0003.43,0001.57,0000.66
2022-03-14 12:37:00,,0826.2,5.01,0.00,24.0,23.1,00.0,33.0,25.7,08.8,0000.0,0004.26,0001.63,0000.66
2022-03-14 12:38:00,,0826.2,5.00,0.00,24.0,23.1,00.0,33.0,25.7,08.8,0000.0,0004.97,0001.69,0000.66
2022-03-14 12:39:00,,0826.2,4.99,0.00,23.9,23.1,00.0,33.0,25.7,08.7,0000.0,0005.09,0001.71,0000.66
2022-03-14 12:40:00,,0826.4,5.00,0.00,23.9,23.1,00.0,32.9,25.7,08.5,0000.0,0005.30,0001.71,0000.66
2022-03-14 12:41:00,,0826.4,5.01,0.00,23.9,23.1,00.0,32.9,25.7,08.4,0000.0,0005.53,0001.78,0000.66
2022-03-14 12:42:00,,0826.5,5.00,0.00,23.9,23.1,00.0,32.9,25.7,08.4,0000.0,0006.05,0001.77,0000.65
2022-03-14 12:43:00,,0826.5,5.00,0.00,23.9,23.0,00.0,32.9,25.6,08.1,0000.0,0005.85,0001.67,0000.63
2022-03-14 12:44:00,,0826.5,5.01,0.00,23.9,23.0,00.0,32.9,25.6,08.0,0000.0,0005.64,0001.61,0000.63
2022-03-14 12:45:00,,0826.5,5.01,0.00,23.9,23.0,00.0,32.9,25.6,08.0,0000.0,0005.37,0001.53,0000.62
2022-03-14 12:46:00,,0826.5,4.98,0.00,23.9,23.0,00.0,32.9,25.6,08.1,0000.0,0005.11,0001.41,0000.61
2022-03-14 12:47:00,,0826.6,5.00,0.00,23.9,23.0,00.0,32.9,25.6,08.2,0000.0,0005.03,0001.38,0000.61
2022-03-14 12:48:00,,0826.6,5.01,0.00,23.9,23.0,00.0,32.9,25.6,08.5,0000.0,0004.39,0001.41,0000.61
2022-03-14 12:49:00,,0826.6,5.01,0.00,23.9,23.0,00.0,32.9,25.6,08.7,0000.0,0004.08,0001.42,0000.62
2022-03-14 12:50:00,,0826.7,5.00,0.00,23.8,23.0,00.0,32.9,25.6,08.7,0000.0,0004.18,0001.47,0000.62
2022-03-14 12:51:00,,0826.7,5.00,0.00,23.8,23.0,00.0,32.8,25.6,08.8,0000.0,0003.93,0001.45,0000.63
2022-03-14 12:52:00,,0826.7,5.00,0.00,23.8,23.0,00.0,32.8,25.6,08.8,0000.0,0003.74,0001.39,0000.63
2022-03-14 12:53:00,,0826.7,4.99,0.00,23.8,23.0,00.0,32.8,25.5,08.6,0000.0,0003.84,0001.38,0000.64
2022-03-14 12:54:00,,0826.8,5.00,0.00,23.8,22.9,00.0,32.8,25.5,08.7,0000.0,0004.13,0001.41,0000.65
2022-03-14 12:55:00,,0826.8,5.00,0.00,23.8,22.9,00.0,32.8,25.5,08.7,0000.0,0004.92,0001.56,0000.66
2022-03-14 12:56:00,,0826.9,5.01,0.00,23.8,22.9,00.0,32.8,25.5,08.4,0000.0,0005.48,0001.60,0000.66
2022-03-14 12:57:00,,0826.8,5.00,0.00,23.8,22.9,00.0,32.8,25.5,08.5,0000.0,0006.11,0001.65,0000.66
2022-03-14 12:58:00,,0826.9,4.98,0.00,23.8,22.9,00.0,32.8,25.5,08.5,0000.0,0006.95,0001.71,0000.67
2022-03-14 12:59:00,,0826.9,5.01,0.00,23.7,22.9,00.0,32.8,25.5,08.2,0000.0,0007.08,0001.68,0000.67
